Zurück zum Katalog

NIMBUS 6

AktivWetterSSO
NORAD 7924·PAYLOAD·🇺🇸 United States

Gestartet Jun 12, 1975 von Vandenberg Space Force Base

Loading…

Nächste Überflüge (nächste 24 Stunden)

TLE

AktuellSource: Space-Track

Epoche: Sep 14, 2026, 05:38 UTC

1 07924U 75052A   26257.23475197 -.00000020  00000-0  43706-4 0  9998
2 07924  99.9946 168.3652 0008134  12.8474 150.8518 13.40825796508065

Verfolge NIMBUS 6 in Echtzeit mit AllMySat

Download on the App Store